• In Spain
  • List of Countries
  • For 7 days
  • Water Temperature
  • Satellite Maps
  • Weather Map
  • Weather Widgets
  • user-avatar
    Login

    Hourly Weather Madrid

    Today, 22 October, Monday

    Time Temperature Precipitation Wind Pressure Humidity
    00:00 +18°C° 0 mm 1 mps 710 mmHg 70%
    01:00 +16°C° 0 mm 1 mps 709 mmHg 71%
    02:00 +16°C° 0 mm 1 mps 709 mmHg 71%
    03:00 +16°C° 0 mm 1 mps 709 mmHg 72%
    04:00 +15°C° 0 mm 1 mps 709 mmHg 73%
    05:00 +15°C° 0 mm 1 mps 709 mmHg 73%
    06:00 +15°C° 0 mm 1 mps 710 mmHg 74%
    07:00 +16°C° 0 mm 1 mps 710 mmHg 68%
    08:00 +19°C° 0 mm 1 mps 710 mmHg 62%
    09:00 +20°C° 0 mm 1 mps 711 mmHg 56%
    10:00 +20°C° 0 mm 2 mps 711 mmHg 48%
    11:00 +23°C° 0 mm 2 mps 711 mmHg 40%
    12:00 +24°C° 0 mm 2 mps 711 mmHg 32%
    13:00 +24°C° 0 mm 3 mps 711 mmHg 29%
    14:00 +25°C° 0 mm 3 mps 711 mmHg 27%
    15:00 +25°C° 0 mm 3 mps 710 mmHg 24%
    16:00 +22°C° 0 mm 3 mps 711 mmHg 27%
    17:00 +21°C° 0 mm 3 mps 711 mmHg 30%
    18:00 +19°C° 0 mm 3 mps 711 mmHg 34%
    19:00 +18°C° 0 mm 3 mps 711 mmHg 38%
    20:00 +18°C° 0 mm 3 mps 712 mmHg 42%
    21:00 +17°C° 0 mm 4 mps 712 mmHg 46%
    22:00 +16°C° 0 mm 3 mps 712 mmHg 50%
    23:00 +16°C° 0 mm 3 mps 712 mmHg 54%

    Tomorrow, 23 October, Tuesday

    Time Temperature Precipitation Wind Pressure Humidity
    00:00 +14°C° 0 mm 3 mps 712 mmHg 57%
    01:00 +14°C° 0 mm 3 mps 712 mmHg 57%
    02:00 +14°C° 0 mm 3 mps 712 mmHg 57%
    03:00 +14°C° 0 mm 2 mps 712 mmHg 57%
    04:00 +14°C° 0 mm 2 mps 712 mmHg 58%
    05:00 +14°C° 0 mm 2 mps 712 mmHg 58%
    06:00 +14°C° 0 mm 2 mps 712 mmHg 59%
    07:00 +15°C° 0 mm 2 mps 713 mmHg 58%
    08:00 +16°C° 0 mm 2 mps 713 mmHg 57%
    09:00 +17°C° 0 mm 2 mps 714 mmHg 56%
    10:00 +19°C° 0 mm 2 mps 713 mmHg 54%
    11:00 +20°C° 0 mm 2 mps 713 mmHg 51%
    12:00 +21°C° 0 mm 2 mps 713 mmHg 49%
    13:00 +23°C° 0 mm 2 mps 713 mmHg 47%
    14:00 +23°C° 0 mm 1 mps 712 mmHg 45%
    15:00 +23°C° 0 mm 1 mps 712 mmHg 43%
    16:00 +22°C° 0 mm 1 mps 712 mmHg 47%
    17:00 +21°C° 0 mm 1 mps 712 mmHg 51%
    18:00 +20°C° 0 mm 1 mps 712 mmHg 55%
    19:00 +19°C° 0 mm 1 mps 712 mmHg 56%
    20:00 +19°C° 0 mm 1 mps 713 mmHg 58%
    21:00 +18°C° 0 mm 1 mps 713 mmHg 60%
    22:00 +18°C° 0 mm 1 mps 713 mmHg 60%
    23:00 +16°C° 0 mm 1 mps 713 mmHg 61%

    Day after tomorrow, 24 October, Wednesday

    Time Temperature Precipitation Wind Pressure Humidity
    00:00 +16°C° 0 mm 1 mps 713 mmHg 62%
    01:00 +16°C° 0 mm 1 mps 712 mmHg 63%
    02:00 +15°C° 0 mm 1 mps 712 mmHg 63%
    03:00 +15°C° 0 mm 1 mps 712 mmHg 63%
    04:00 +14°C° 0 mm 1 mps 712 mmHg 64%
    05:00 +14°C° 0 mm 1 mps 712 mmHg 65%
    06:00 +14°C° 0 mm 1 mps 712 mmHg 66%
    07:00 +15°C° 0 mm 1 mps 712 mmHg 61%
    08:00 +18°C° 0 mm 1 mps 713 mmHg 56%
    09:00 +19°C° 0 mm 1 mps 713 mmHg 51%
    10:00 +20°C° 0 mm 1 mps 713 mmHg 47%
    11:00 +22°C° 0 mm 1 mps 712 mmHg 43%
    12:00 +23°C° 0 mm 1 mps 712 mmHg 38%
    13:00 +23°C° 0 mm 1 mps 712 mmHg 37%
    14:00 +24°C° 0 mm 1 mps 711 mmHg 35%
    15:00 +24°C° 0 mm 1 mps 711 mmHg 34%
    16:00 +23°C° 0 mm 1 mps 710 mmHg 38%
    17:00 +21°C° 0 mm 1 mps 710 mmHg 42%
    18:00 +20°C° 0 mm 1 mps 710 mmHg 46%
    19:00 +19°C° 0 mm 1 mps 710 mmHg 48%
    20:00 +19°C° 0 mm 1 mps 710 mmHg 49%
    21:00 +18°C° 0 mm 1 mps 710 mmHg 51%
    22:00 +18°C° 0 mm 1 mps 710 mmHg 52%
    23:00 +16°C° 0 mm 1 mps 710 mmHg 53%

    25 October, Thursday

    Time Temperature Precipitation Wind Pressure Humidity
    00:00 +16°C° 0 mm 1 mps 709 mmHg 54%
    01:00 +15°C° 0 mm 1 mps 709 mmHg 55%
    02:00 +15°C° 0 mm 1 mps 709 mmHg 56%
    03:00 +13°C° 0 mm 0 mps 708 mmHg 57%
    04:00 +13°C° 0 mm 0 mps 708 mmHg 58%
    05:00 +13°C° 0 mm 0 mps 708 mmHg 59%
    06:00 +13°C° 0 mm 0 mps 708 mmHg 60%
    07:00 +14°C° 0 mm 0 mps 708 mmHg 56%
    08:00 +18°C° 0 mm 1 mps 709 mmHg 51%
    09:00 +19°C° 0 mm 1 mps 709 mmHg 46%
    10:00 +20°C° 0 mm 1 mps 709 mmHg 43%
    11:00 +22°C° 0 mm 1 mps 709 mmHg 39%
    12:00 +23°C° 0 mm 1 mps 708 mmHg 36%
    13:00 +23°C° 0 mm 2 mps 708 mmHg 34%
    14:00 +24°C° 0 mm 2 mps 707 mmHg 32%
    15:00 +24°C° 0 mm 2 mps 707 mmHg 31%
    16:00 +23°C° 0 mm 1 mps 707 mmHg 35%
    17:00 +21°C° 0 mm 1 mps 706 mmHg 39%
    18:00 +20°C° 0 mm 1 mps 706 mmHg 43%
    19:00 +19°C° 0 mm 1 mps 706 mmHg 44%
    20:00 +17°C° 0 mm 0 mps 706 mmHg 45%
    21:00 +16°C° 0 mm 0 mps 706 mmHg 46%
    22:00 +16°C° 0 mm 0 mps 706 mmHg 47%
    23:00 +18°C° 0 mm 1 mps 706 mmHg 48%

    26 October, Friday

    Time Temperature Precipitation Wind Pressure Humidity
    00:00 +16°C° 0 mm 1 mps 706 mmHg 49%
    01:00 +16°C° 0 mm 1 mps 705 mmHg 50%
    02:00 +16°C° 0 mm 1 mps 705 mmHg 51%
    03:00 +15°C° 0 mm 1 mps 705 mmHg 52%
    04:00 +15°C° 0 mm 1 mps 705 mmHg 52%
    05:00 +14°C° 0 mm 1 mps 704 mmHg 53%
    06:00 +14°C° 0 mm 1 mps 704 mmHg 54%
    07:00 +15°C° 0 mm 1 mps 705 mmHg 50%
    08:00 +18°C° 0 mm 1 mps 705 mmHg 47%
    09:00 +19°C° 0 mm 1 mps 705 mmHg 43%
    10:00 +19°C° 0 mm 1 mps 705 mmHg 43%
    11:00 +19°C° 0 mm 2 mps 705 mmHg 43%
    12:00 +19°C° 0 mm 2 mps 705 mmHg 43%
    13:00 +20°C° 0 mm 2 mps 704 mmHg 43%
    14:00 +20°C° 0 mm 2 mps 704 mmHg 43%
    15:00 +20°C° 0 mm 2 mps 704 mmHg 43%
    16:00 +19°C° 0 mm 2 mps 703 mmHg 46%
    17:00 +18°C° 0 mm 2 mps 703 mmHg 49%
    18:00 +18°C° 0 mm 1 mps 703 mmHg 52%
    19:00 +18°C° 0 mm 1 mps 703 mmHg 54%
    20:00 +16°C° 0 mm 2 mps 703 mmHg 56%
    21:00 +15°C° 0 mm 2 mps 703 mmHg 58%
    22:00 +14°C° 0.3 mm 3 mps 703 mmHg 59%
    23:00 +14°C° 0.3 mm 4 mps 703 mmHg 60%

    27 October, Saturday

    Time Temperature Precipitation Wind Pressure Humidity
    00:00 +13°C° 0.3 mm 5 mps 703 mmHg 61%
    01:00 +13°C° 0.3 mm 5 mps 703 mmHg 62%
    02:00 +12°C° 0.3 mm 5 mps 703 mmHg 64%
    03:00 +10°C° 0.3 mm 5 mps 703 mmHg 65%
    04:00 +10°C° 0.1 mm 5 mps 703 mmHg 65%
    05:00 +10°C° 0.1 mm 4 mps 703 mmHg 66%
    06:00 +10°C° 0.1 mm 4 mps 704 mmHg 66%
    07:00 +9°C° 0 mm 5 mps 704 mmHg 61%
    08:00 +9°C° 0 mm 5 mps 704 mmHg 56%
    09:00 +10°C° 0 mm 6 mps 705 mmHg 51%
    10:00 +10°C° 0 mm 6 mps 704 mmHg 47%
    11:00 +11°C° 0 mm 6 mps 704 mmHg 43%
    12:00 +13°C° 0 mm 6 mps 703 mmHg 39%
    13:00 +12°C° 0 mm 7 mps 703 mmHg 38%
    14:00 +12°C° 0 mm 8 mps 703 mmHg 38%
    15:00 +12°C° 0 mm 9 mps 702 mmHg 38%
    16:00 +11°C° 0 mm 8 mps 703 mmHg 39%
    17:00 +9°C° 0 mm 7 mps 703 mmHg 41%
    18:00 +8°C° 0 mm 6 mps 703 mmHg 42%
    19:00 +7°C° 0 mm 5 mps 703 mmHg 44%
    20:00 +7°C° 0 mm 5 mps 703 mmHg 45%
    21:00 +6°C° 0 mm 4 mps 703 mmHg 47%
    22:00 +5°C° 0 mm 4 mps 703 mmHg 50%
    23:00 +5°C° 0 mm 4 mps 703 mmHg 52%

    28 October, Sunday

    Time Temperature Precipitation Wind Pressure Humidity
    00:00 +5°C° 0 mm 4 mps 702 mmHg 54%
    01:00 +4°C° 0 mm 3 mps 702 mmHg 57%
    02:00 +4°C° 0 mm 3 mps 702 mmHg 59%
    03:00 +4°C° 0 mm 2 mps 701 mmHg 61%
    04:00 +4°C° 0 mm 2 mps 701 mmHg 62%
    05:00 +4°C° 0 mm 2 mps 701 mmHg 63%
    06:00 +4°C° 0 mm 2 mps 701 mmHg 64%
    07:00 +5°C° 0 mm 2 mps 701 mmHg 61%
    08:00 +5°C° 0 mm 2 mps 702 mmHg 58%
    09:00 +6°C° 0 mm 2 mps 702 mmHg 55%
    10:00 +7°C° 0 mm 3 mps 702 mmHg 50%
    11:00 +8°C° 0 mm 3 mps 701 mmHg 44%
    12:00 +8°C° 0 mm 4 mps 701 mmHg 39%
    13:00 +10°C° 0 mm 4 mps 701 mmHg 38%
    14:00 +9°C° 0 mm 5 mps 701 mmHg 37%
    15:00 +9°C° 0 mm 6 mps 700 mmHg 36%
    16:00 +8°C° 0.1 mm 6 mps 701 mmHg 40%
    17:00 +7°C° 0.1 mm 5 mps 701 mmHg 45%
    18:00 +7°C° 0.1 mm 5 mps 702 mmHg 50%
    19:00 +6°C° 0 mm 5 mps 702 mmHg 53%
    20:00 +5°C° 0 mm 4 mps 702 mmHg 57%
    21:00 +5°C° 0 mm 4 mps 703 mmHg 60%
    22:00 +4°C° 0 mm 3 mps 703 mmHg 62%
    23:00 +4°C° 0 mm 3 mps 703 mmHg 64%
    Show more